Location: Irma
(52.9170°N, 111.2330°W)
Time: 02:25:58
(UTC-06:00)

Daily predictions for brighter satellites

Satellite Brightness Start Highest point End
(mag) Time Altitude Azimuth Time Altitude Azimuth Time Altitude Azimuth
H-2A R/B 4.3 00:00:37 10° NE 00:04:05 21° E 00:05:38 18° ESE
Cosmos 2084 3.8 00:04:03 10° WSW 00:07:50 59° NW 00:11:42 10° NE
Meteor 1-11 Rocket 4.0 00:05:10 23° SSE 00:08:46 57° E 00:14:24 10° NNE
Timation 1 Rocket 4.4 00:05:08 16° SSW 00:09:52 63° ESE 00:15:48 10° NE
Cosmos 1821 Rocket 4.2 00:06:16 22° SSE 00:10:17 59° E 00:16:23 10° NNE
Gbstr 26 Del rocket 3.6 00:07:52 10° W 00:12:29 41° SSW 00:13:57 30° SSE
ATLAS 2AS CENTAUR R/B 3.5 00:10:07 10° NW 00:18:16 63° NNE 00:26:08 10° ESE
Cosmos 2123 Rocket 4.1 00:13:36 10° N 00:19:56 74° ENE 00:23:48 25° SSE
Cosmos 2297 4.1 00:14:40 10° SW 00:20:21 66° NW 00:26:07 10° NNE
Cosmos 1536 3.2 00:19:29 32° SSE 00:20:57 49° E 00:24:49 10° NNE
Cosmos 1400 Rocket 3.1 00:21:35 32° SSE 00:23:12 56° E 00:27:17 10° NNE
Cosmos 1934 Rocket 4.0 00:23:10 25° SSE 00:26:45 65° E 00:32:46 10° NNE
NOSS 3-1 (C) 4.1 00:20:58 10° NW 00:28:13 65° SW 00:33:31 23° SSE
ALOS 2 2.7 00:26:47 30° SSE 00:28:54 69° ENE 00:33:17 10° N
Cosmos 2084 Rocket 3.2 00:26:11 10° NW 00:30:04 79° NE 00:32:05 28° SE
Cosmos 1025 Rocket 3.2 00:29:14 10° NNW 00:33:36 67° W 00:35:40 30° S
CZ-4C R/B 3.1 00:33:30 37° SSE 00:34:54 85° ENE 00:38:40 10° NNW
Meteor 2-21 Rocket 4.5 00:31:22 24° S 00:35:14 77° E 00:41:28 10° NNE
USA 234 3.2 00:29:32 10° ENE 00:36:05 69° SSE 00:42:35 10° SW
Cosmos 1455 Rocket 3.9 00:34:38 27° SE 00:36:12 37° E 00:40:12 10° NNE
Meteor 2-16 Rocket 4.5 00:34:56 26° S 00:38:30 69° E 00:44:35 10° NNE
Cosmos 1689 Rocket 2.6 00:38:23 41° SE 00:39:14 57° ENE 00:42:23 10° N
Meteor 1-23 Rocket 4.2 00:33:50 10° NNW 00:39:28 81° W 00:42:31 28° S
BREEZE-M DEB (TANK) 4.1 00:21:25 10° W 00:40:07 72° S 00:44:46 10° E
Okean 1 Rocket 3.7 00:37:09 19° SW 00:40:09 52° WNW 00:44:33 10° N
Cosmos 1300 Rocket 4.5 00:37:48 17° SW 00:40:59 45° WNW 00:45:17 10° N
Cosmos 1302 Rocket 4.0 00:38:23 26° S 00:41:21 71° ESE 00:46:39 10° NNE
MOS 1-B Rocket 4.2 00:52:17 26° SSE 00:56:00 83° ENE 01:03:05 10° NNW
Cosmos 2369 Rocket 2.6 00:54:35 29° SSE 00:57:02 47° ESE 01:02:25 10° NE
Cosmos 2219 4.1 00:53:39 10° NNW 00:59:05 44° NE 01:04:09 12° ESE
Cosmos 2227 Rocket 4.4 00:59:32 10° NNW 01:04:02 23° NNE 01:08:32 10° E
Cosmos 1544 Rocket 3.4 01:03:45 35° S 01:05:31 90° E 01:09:52 10° N
CZ-2C R/B 3.3 01:03:43 10° NNE 01:08:37 39° E 01:10:54 26° SE
GP-B 3.6 01:04:55 10° N 01:09:15 49° E 01:11:03 31° SE
Okean 2 3.8 01:05:23 10° NNW 01:09:26 52° W 01:10:58 33° SSW
ISS -3.5 01:10:23 54° SW 01:10:52 63° S 01:14:07 10° E
Cosmos 375 4.2 01:08:05 10° NW 01:12:26 72° SW 01:13:46 39° SSE
CZ-4B R/B 1.6 01:12:21 45° SW 01:12:47 49° W 01:15:54 10° NNW
CZ-2C R/B 3.4 01:10:56 24° SE 01:13:48 55° ENE 01:18:33 10° N
Cosmos 1447 Rocket 4.5 01:09:33 10° NNW 01:15:44 79° W 01:19:08 29° S
Meteor 1-5 Rocket 4.0 01:17:12 30° S 01:19:56 87° ESE 01:25:18 10° NNE
Cosmos 1315 Rocket 3.1 01:22:27 32° SW 01:24:00 58° WNW 01:27:54 10° N
Cosmos 1633 3.7 01:23:00 25° WSW 01:24:35 37° WNW 01:28:06 10° N
Cosmos 2297 Rocket 4.4 01:21:16 10° NNW 01:25:49 24° NE 01:30:20 10° E
Helios 1A Rocket 3.1 01:24:06 10° NNE 01:28:16 62° ESE 01:29:39 38° SSE
Lacrosse 5 rocket 1.2 01:29:04 47° SSE 01:29:24 49° SE 01:32:57 10° ENE
SeaSat 1 2.9 01:27:10 16° SE 01:31:01 58° NE 01:35:53 10° NNW
Landsat 5 4.2 01:31:02 31° SSW 01:32:32 43° W 01:36:36 10° NNW
Cosmos 2100 Rocket 4.2 01:29:43 28° SSE 01:33:14 66° E 01:39:34 10° NNE
Meteor 1-12 Rocket 4.3 01:30:55 30° S 01:33:44 70° E 01:39:23 10° NNE
Cosmos 1500 4.0 01:33:10 31° SE 01:34:15 39° E 01:37:50 10° NNE
Cosmos 1515 3.6 01:33:56 10° NNW 01:37:50 87° WSW 01:39:01 44° S
H-2A R/B 3.0 01:35:31 10° N 01:40:01 61° WNW 01:42:16 28° SW
Cosmos 1943 Rocket 2.7 01:37:57 29° SSE 01:40:16 44° ESE 01:45:35 10° NE
Cosmos 968 Rocket 3.4 01:35:15 10° NNW 01:40:33 88° WSW 01:43:19 29° SSE
CRYOSAT 2 4.4 01:35:59 10° N 01:40:53 78° W 01:43:09 32° SSW
Cosmos 2061 Rocket 4.2 01:39:17 28° S 01:42:53 71° E 01:49:18 10° NNE
Lacrosse 5 1.9 01:40:58 29° SSW 01:43:23 58° SE 01:48:24 10° ENE
Cosmos 1825 Rocket 3.9 01:39:51 10° N 01:44:17 61° ENE 01:46:25 29° SSE
SL-8 R/B 4.2 01:41:29 10° W 01:45:53 37° SSW 01:46:25 35° S
Cosmos 1346 Rocket 3.5 01:43:29 10° NNW 01:47:11 40° W 01:48:13 33° SW
Genesis I 3.4 01:48:58 28° SW 01:51:01 75° NW 01:55:04 10° NE
Cosmos 1818 4.0 01:50:08 31° S 01:52:20 47° ESE 01:57:37 10° NE
Cosmos 2016 Rocket 4.1 01:51:09 27° SSE 01:54:34 64° E 02:00:37 10° NNE
Cosmos 1459 Rocket 3.9 01:51:41 29° S 01:55:05 85° E 02:01:12 10° NNE
Cosmos 1758 Rocket 4.2 01:52:19 10° N 01:56:45 53° ENE 01:59:13 24° SE
Cosmos 1802 Rocket 4.0 01:53:48 28° S 01:57:17 77° E 02:03:37 10° NNE
Cosmos 2285 Rocket 4.4 01:53:55 19° SW 01:58:37 61° WNW 02:04:59 10° NNE
Cosmos 2263 4.1 01:56:22 27° SSW 01:59:33 90° SE 02:05:16 10° NNE
Cosmos 1602 Rocket 4.4 01:55:34 10° NNW 01:59:41 38° W 02:01:17 28° SW
Cosmos 44 Rocket 3.5 01:59:32 10° NW 02:04:38 59° SW 02:07:02 29° SSE
Uosat 12 SS-18 rocket 4.4 02:04:36 10° NW 02:09:02 74° NE 02:14:07 10° SE
ATLAS 2AS CENTAUR R/B 3.2 02:01:30 10° NW 02:09:23 54° WSW 02:14:24 22° S
Cosmos 1975 3.3 02:11:20 32° SW 02:12:55 53° WNW 02:16:55 10° N
Cosmos 2173 Rocket 4.1 02:09:59 27° SSW 02:13:41 77° WNW 02:20:05 10° N
Cosmos 1455 Rocket 4.5 02:11:46 18° WSW 02:14:07 29° WNW 02:17:57 10° N
Meteor 1-21 4.2 02:08:59 10° NNW 02:14:37 88° ENE 02:18:02 25° SSE
BREEZE-M DEB (TANK) 4.1 02:13:03 10° W 02:16:51 37° SSW 02:28:40 10° SE
Cosmos 1777 Rocket 3.9 02:11:40 10° NNW 02:16:54 74° WSW 02:19:48 27° SSE
Cosmos 1992 Rocket 4.3 02:14:57 24° SW 02:18:04 63° WNW 02:23:16 10° NNE
USA 234 3.6 02:12:40 10° ENE 02:19:10 70° NNW 02:25:40 10° W
Cosmos 1725 Rocket 4.0 02:25:40 25° S 02:29:27 77° E 02:35:39 10° NNE
Cosmos 1743 2.6 02:29:01 37° S 02:30:28 89° W 02:34:22 10° N
Tsikada Rocket 4.0 02:25:26 10° NNW 02:31:43 76° W 02:35:45 24° S
Cosmos 2082 4.2 02:31:31 10° NNW 02:37:09 62° NE 02:42:43 10° SE
Cosmos 1842 3.2 02:33:15 10° NNW 02:37:16 87° W 02:39:06 31° S
USA 161 4.5 02:36:13 10° E 02:37:37 13° ENE 02:38:58 10° NE
Cosmos 1340 2.6 02:34:10 10° NNW 02:38:00 86° WSW 02:39:40 32° S
Cosmos 2369 Rocket 3.2 02:36:21 12° WSW 02:41:11 42° NW 02:46:32 10° NNE
Cosmos 2228 3.7 02:39:25 23° SSE 02:41:47 47° E 02:45:56 10° NNE
Cosmos 2219 3.6 02:37:57 10° NW 02:43:17 43° WSW 02:46:01 25° SSW
BREEZE-M DEB (TANK) 4.1 02:46:06 12° SE 02:46:06 12° SE 02:46:35 10° ESE
PSLV R/B 3.8 02:41:49 10° NNE 02:46:13 66° ESE 02:48:40 26° S
SL-08 R/B 3.7 02:42:26 15° SSE 02:46:18 63° ENE 02:50:54 10° N
ISS -3.4 02:43:58 10° W 02:47:12 63° S 02:50:26 10° ESE
Cosmos 44 3.5 02:43:28 10° NW 02:48:38 55° SW 02:51:59 20° SSE
CZ-2C R/B 3.5 02:44:07 10° N 02:48:56 39° WNW 02:52:25 18° WSW
SL-16 R/B 3.9 02:43:29 10° ESE 02:49:04 37° ENE 02:54:40 10° N
Cosmos 2227 Rocket 2.4 02:43:21 10° NNW 02:49:05 76° ENE 02:54:45 10° SE
Cosmos 1606 Rocket 3.5 02:47:26 30° SSW 02:49:31 72° WNW 02:53:52 10° N
CZ-2C R/B 4.3 02:52:00 20° SW 02:53:59 25° W 02:58:03 10° NW
JB-3 4.4 02:54:02 10° NNE 02:58:07 75° ESE 03:00:19 27° S
Cosmos 2150 Rocket 4.3 02:56:07 10° NNW 03:01:24 68° ENE 03:06:34 10° SE
Cosmos 1666 2.6 03:00:30 30° SSW 03:02:18 87° WNW 03:06:07 10° N
Cosmos 2058 Rocket 3.1 03:03:41 26° SSW 03:06:06 75° WNW 03:10:35 10° N
Lacrosse 5 rocket 1.7 03:04:58 10° W 03:08:38 54° NNW 03:12:13 10° ENE
SeaSat 1 3.4 03:06:58 23° SW 03:08:49 29° WSW 03:13:08 10° NW
Cosmos 405 Rocket 3.4 03:05:57 10° N 03:10:00 56° ENE 03:13:48 11° SSE
Cosmos 2297 Rocket 2.3 03:05:05 10° NNW 03:10:47 80° ENE 03:16:27 10° SE
GEOS 3 Rocket 3.6 03:07:06 10° SE 03:12:19 85° NE 03:17:30 10° NW
Cosmos 1898 Rocket 3.6 03:09:45 10° NNW 03:15:08 85° ENE 03:20:30 10° SSE
Cosmos 1570 Rocket 4.1 03:13:19 22° SSW 03:16:52 83° ESE 03:22:14 10° NNE
Cosmos 1656 Rocket 3.8 03:14:46 21° SW 03:18:43 77° WNW 03:24:23 10° NNE
NPP 3.8 03:15:29 10° NNE 03:20:54 70° ESE 03:25:03 17° S
Resurs 1-4 Rocket 3.9 03:18:04 10° NE 03:22:24 25° E 03:26:40 10° SE
Landsat 4 4.1 03:20:44 24° SSW 03:22:42 48° W 03:26:27 10° NNW
Cosmos 1943 Rocket 3.0 03:19:27 13° WSW 03:24:05 43° NW 03:29:29 10° NNE
Gblst 52 Del rocket 4.4 03:19:04 10° WSW 03:25:46 75° S 03:31:39 10° E
Lacrosse 5 2.3 03:21:21 10° W 03:26:26 63° NNW 03:31:30 10° ENE
Cosmos 1726 Rocket 4.4 03:24:02 20° SW 03:26:32 38° WNW 03:30:37 10° N
Cosmos 972 Rocket 4.1 03:23:38 10° NNW 03:28:23 51° WSW 03:32:16 16° S
Cosmos 1937 Rocket 3.5 03:24:26 10° NNW 03:29:38 82° ENE 03:34:51 10° SSE
Meteor 1-24 Rocket 4.3 03:24:57 10° N 03:30:33 60° ENE 03:36:18 10° SSE
ADEOS 4.2 03:25:46 10° NNE 03:30:53 51° E 03:35:33 12° S
NOSS 3-4 (A) 3.7 03:25:39 10° NW 03:32:30 79° SW 03:39:46 10° SE
NOSS 3-4 (C) 3.7 03:25:44 10° NW 03:32:38 80° SW 03:39:57 10° SE
Cosmos 1464 Rocket 4.2 03:27:05 13° S 03:32:41 70° E 03:39:01 10° NNE
Okean 3 Rocket 3.8 03:28:32 10° N 03:32:59 71° ENE 03:37:22 10° SSE
Cosmos 1818 4.3 03:30:46 10° WSW 03:35:59 49° NW 03:41:20 10° NE
Cosmos 2233 Rocket 4.2 03:32:40 18° SSW 03:37:15 60° WNW 03:43:20 10° N
ARIANE 5 R/B 3.6 03:35:12 10° NNE 03:40:02 41° E 03:44:53 10° SSE
ERS-2 2.7 03:36:49 10° NNE 03:40:30 55° ESE 03:43:28 15° S
EO 1 Del DPAF 4.2 03:39:57 10° SE 03:43:42 49° ENE 03:47:28 10° N
NOSS 3-3 (A) 4.1 03:39:11 16° SW 03:44:27 89° SE 03:51:28 10° NE
NOSS 3-3 (C) 4.1 03:39:17 16° SW 03:44:33 88° SE 03:51:34 10° NE
Abrixas 3.2 03:44:10 21° SW 03:45:34 33° S 03:48:21 10° ESE
Cosmos 1441 Rocket 4.4 03:43:40 10° N 03:47:30 44° ENE 03:51:20 10° SE
SL-24 R/B 4.3 03:43:57 10° SSE 03:48:50 87° ENE 03:53:19 10° NNW
Cosmos 1707 2.7 03:46:35 10° NNW 03:50:31 71° W 03:54:08 12° S
AQUA 3.8 03:47:12 10° NNE 03:52:00 78° WNW 03:55:56 15° SSW
GENESIS II 4.4 03:49:27 18° SSW 03:52:23 73° SE 03:56:34 10° NE
Spot 4 Rocket 4.3 03:48:28 10° NNE 03:53:39 69° ESE 03:58:38 11° S
ATLAS CENTAUR R/B 3.2 03:50:41 10° S 03:54:57 30° ESE 03:59:17 10° ENE
Cosmos 1461 4.2 03:55:13 10° NW 03:59:22 45° NE 04:03:19 10° ESE
Cosmos 2208 Rocket 4.4 03:56:03 15° SW 04:00:19 53° WNW 04:05:31 10° NNE
USA 234 3.7 03:55:27 10° E 04:01:56 65° N 04:08:25 10° WNW
RESURS DK-1 4.3 03:58:48 10° NNW 04:02:37 34° NE 04:06:25 10° ESE
Cosmos 1513 Rocket 4.5 03:57:30 11° S 04:03:25 89° W 04:09:32 10° N
IRS-1D 4.0 03:59:26 10° NNE 04:04:21 57° E 04:09:15 10° S
CBERS-1 4.2 03:59:43 10° N 04:04:49 64° WNW 04:09:21 13° SSW
BREEZE-M DEB (TANK) 4.5 03:59:43 10° WNW 04:06:35 20° WSW 04:09:20 13° SSW
USA 161 1.8 04:05:27 15° S 04:07:41 44° W 04:10:25 10° NNW
Cosmos 1656 4.4 04:04:41 10° S 04:10:09 49° ESE 04:15:36 10° NE
UNK 2.7 04:09:22 10° W 04:14:17 49° S 04:16:33 10° ESE
Okean O Rocket 3.7 04:11:09 10° NE 04:14:46 24° E 04:18:22 10° SSE
Cosmos 1076 Rocket 3.5 04:10:47 10° N 04:15:10 90° W 04:19:29 10° S
Cosmos 1814 Rocket 4.3 04:09:57 10° SSW 04:15:13 69° ESE 04:20:35 10° NNE
CZ-2D R/B 2.6 04:11:15 10° NNE 04:16:43 62° ESE 04:22:05 10° S
IRS-1C 4.3 04:13:03 10° N 04:18:21 62° WNW 04:23:29 11° SSW
Cosmos 1891 Rocket 4.5 04:13:30 10° SSW 04:19:32 74° WNW 04:25:43 10° N
In-Cosmos 22 4.3 04:17:34 10° N 04:22:54 74° ENE 04:28:11 10° SSE
ISS -2.3 04:20:33 10° W 04:23:18 25° SSW 04:26:03 10° SSE
Meteor 2-5 Rocket 4.4 04:18:16 10° NNW 04:23:37 38° W 04:29:02 10° SSW
Cosmos 1697 Rocket 3.4 04:22:16 10° S 04:27:43 51° ESE 04:33:11 10° NE
SL-16 R/B 2.7 04:26:32 10° S 04:32:33 53° W 04:38:36 10° NNW
Cosmos 2227 Rocket 3.4 04:28:11 10° NW 04:32:35 23° WSW 04:36:56 10° SSW
Cosmos 2034 Rocket 4.1 04:26:33 10° SSW 04:32:42 63° WNW 04:38:53 10° N
Cosmos 1674 4.5 04:29:51 10° N 04:33:22 34° ENE 04:36:50 10° SE
Cosmos 1980 Rocket 3.4 04:30:13 10° S 04:35:22 38° ESE 04:40:34 10° NE
Cosmos 990 Rocket 4.4 04:31:42 10° NW 04:36:39 43° WSW 04:41:35 10° S
Cosmos 1655 Rocket 4.5 04:31:19 10° N 04:37:45 70° ENE 04:44:07 10° SSE
Cosmos 1408 Rocket 3.7 04:34:12 10° NNW 04:38:31 58° W 04:42:50 10° S
Nadezhda 4 Rocket 4.2 04:33:30 10° NNW 04:39:29 53° W 04:45:29 10° SSW
Cosmos 1766 Rocket 3.7 04:35:53 10° NNW 04:40:14 60° W 04:44:35 10° S
Cosmos 468 Rocket 4.1 04:37:24 10° SW 04:42:35 69° WNW 04:47:44 10° NNE
Cosmos-2242 3.4 04:41:57 10° S 04:46:13 65° E 04:50:30 10° NNE
Cosmos 2322 Rocket 4.4 04:42:13 10° SSE 04:46:15 21° E 04:50:19 10° NE
Lacrosse 5 rocket 2.2 04:44:43 10° WNW 04:48:15 44° N 04:51:47 10° E
Cosmos 1766 3.5 04:50:03 10° SSW 04:53:57 58° WNW 04:57:53 10° N
Cosmos 2297 Rocket 3.4 04:50:00 10° NW 04:54:14 22° WSW 04:58:26 10° SSW
Cosmos 2278 4.2 04:49:39 10° SW 04:55:11 52° NW 05:00:45 10° NNE
Cosmos 2369 4.1 04:50:28 10° SW 04:56:02 57° NW 05:01:39 10° NNE
